Location: Spruce Knob
(38.6995°N, 79.5330°W)
Time: 18:58:21
(UTC-04:00)

O/OREOS (USA 219) - Visible Passes

Search period start: 31 March 2023 00:00
Search period end: 10 April 2023 00:00
Orbit: 621 x 646 km, 72.0° (Epoch: 22 May)

Date Brightness Start Highest point End Pass type
(mag) Time Alt. Az. Time Alt. Az. Time Alt. Az.
31 Mar ? 05:57:45 10° SSW 06:02:20 75° WNW 06:06:54 10° NNE visible
01 Apr ? 04:42:40 14° SE 04:45:18 22° ESE 04:48:50 10° NE visible
01 Apr ? 06:20:22 10° SW 06:24:30 32° WNW 06:28:37 10° N visible
02 Apr ? 05:05:03 28° S 05:07:08 52° ESE 05:11:34 10° NNE visible
03 Apr ? 03:49:50 10° ESE 03:50:22 11° E 03:51:18 10° E visible
03 Apr ? 05:27:18 35° SW 05:29:09 66° WNW 05:33:42 10° NNE visible
04 Apr ? 04:11:59 25° ESE 04:12:04 25° ESE 04:15:47 10° NE visible
04 Apr ? 05:49:27 22° W 05:51:20 29° WNW 05:55:19 10° N visible
05 Apr ? 04:34:03 59° E 04:34:03 59° E 04:38:25 10° NNE visible
05 Apr ? 06:11:31 11° W 06:13:43 14° NW 06:16:12 10° NNW visible
06 Apr ? 03:18:34 11° E 03:18:34 11° E 03:18:52 10° ENE visible
06 Apr ? 04:56:02 59° WNW 04:56:02 59° WNW 05:00:28 10° NNE visible
07 Apr ? 03:40:29 22° ENE 03:40:29 22° ENE 03:42:44 10° NE visible
07 Apr ? 05:17:57 26° WNW 05:18:11 26° WNW 05:22:02 10° N visible
08 Apr ? 04:02:21 38° NE 04:02:21 38° NE 04:05:15 10° NNE visible
08 Apr ? 05:39:49 12° WNW 05:40:36 13° NW 05:42:41 10° NNW visible
09 Apr ? 04:24:11 37° NNW 04:24:11 37° NNW 04:27:15 10° NNE visible
